Weather History for KEMP - May, 2013

Change the Weather History Date:

Tuesday, May 14, 2013

  Actual Average Record
Temperature  
Mean Temperature 77 °F 65 °F  
Max Temperature 90 °F 76 °F 90 °F (2013)
Min Temperature 63 °F 54 °F 41 °F (2000)
Degree Days  
Heating Degree Days 0 3  
Month to date heating degree days 132 53  
Since 1 July heating degree days 4971 4782  
Cooling Degree Days 12 3  
Month to date cooling degree days 12 25  
Year to date cooling degree days 26 48  
Growing Degree Days 26 (Base 50)    
Moisture  
Dew Point 49 °F    
Average Humidity 48    
Maximum Humidity 73    
Minimum Humidity 23    
Precipitation  
Precipitation 0.00 in 0.15 in 0.48 in (2004)
Month to date precipitation 2.05 2.14  
Year to date precipitation 10.15 9.91  
Sea Level Pressure  
Sea Level Pressure 29.86 in    
Wind  
Wind Speed 19 mph (SSW)    
Max Wind Speed 30 mph    
Max Gust Speed 38 mph    
Visibility 10 miles    
Events      
T = Trace of Precipitation, MM = Missing Value Source: NWS Daily Summary

Daily Weather History Graph

Daily Weather History Graph

Search for Another Location

Airport or City:

Trip Planner

Search our weather history database for the weather conditions in past years. The results will help you decide how hot, cold, wet, or windy it might be!

Date:

Astronomy

May. 14, 2013 Rise Set
Actual Time 6:14 AM CDT 8:28 PM CDT
Civil Twilight 5:44 AM CDT 8:58 PM CDT
Nautical Twilight 5:08 AM CDT 9:34 PM CDT
Astronomical Twilight 4:28 AM CDT 10:14 PM CDT
Moon 9:54 AM CDT (5/14) No Moon Set
Length of Visible Light 15h 13m
Length of Day
14h 14m
Waxing Crescent, 19% of the Moon is Illuminated
May 14
Waxing Crescent
May 17
First Quarter
May 24
Full
May 31
Last Quarter
Jun 8
New

Hourly Weather History & Observations

Time (CDT) Temp. Dew Point Humidity Pressure Visibility Wind Dir Wind Speed Gust Speed Precip Events Conditions
12:53 AM 66.0 °F 55.0 °F 68% 29.92 in 10.0 mi South 13.8 mph - N/A   Clear
1:53 AM 64.9 °F 55.0 °F 70% 29.90 in 10.0 mi South 15.0 mph - N/A   Clear
2:53 AM 63.0 °F 54.0 °F 72% 29.89 in 10.0 mi South 13.8 mph - N/A   Clear
3:53 AM 68.0 °F 48.0 °F 49% 29.88 in 10.0 mi SSW 11.5 mph 18.4 mph N/A   Clear
4:53 AM 70.0 °F 45.0 °F 41% 29.87 in 10.0 mi SW 21.9 mph 28.8 mph N/A   Clear
5:53 AM 69.1 °F 44.1 °F 40% 29.87 in 10.0 mi SW 20.7 mph 33.4 mph N/A   Clear
6:53 AM 69.1 °F 43.0 °F 39% 29.88 in 10.0 mi SW 18.4 mph 33.4 mph N/A   Clear
7:53 AM 71.1 °F 43.0 °F 36% 29.88 in 10.0 mi SW 21.9 mph 33.4 mph N/A   Clear
8:53 AM 75.0 °F 44.1 °F 33% 29.88 in 10.0 mi SW 25.3 mph 33.4 mph N/A   Clear
9:53 AM 78.1 °F 44.1 °F 30% 29.88 in 10.0 mi WSW 26.5 mph 35.7 mph N/A   Clear
10:53 AM 82.9 °F 46.0 °F 27% 29.88 in 10.0 mi WSW 27.6 mph 34.5 mph N/A   Clear
11:53 AM 86.0 °F 46.9 °F 26% 29.88 in 10.0 mi WSW 25.3 mph 34.5 mph N/A   Clear
12:53 PM 88.0 °F 48.0 °F 25% 29.87 in 10.0 mi SW 28.8 mph 35.7 mph N/A   Clear
1:53 PM 89.1 °F 48.9 °F 25% 29.86 in 10.0 mi SW 26.5 mph 36.8 mph N/A   Clear
2:53 PM 90.0 °F 50.0 °F 25% 29.86 in 10.0 mi SW 23.0 mph 33.4 mph N/A   Clear
3:53 PM 90.0 °F 48.0 °F 24% 29.84 in 10.0 mi SW 21.9 mph 31.1 mph N/A   Clear
4:53 PM 88.0 °F 50.0 °F 27% 29.83 in 10.0 mi SSW 24.2 mph 32.2 mph N/A   Clear
5:53 PM 86.0 °F 45.0 °F 24% 29.83 in 10.0 mi SSW 19.6 mph 31.1 mph N/A   Clear
6:53 PM 82.9 °F 50.0 °F 32% 29.81 in 10.0 mi SSW 12.7 mph 23.0 mph N/A   Clear
7:53 PM 79.0 °F 50.0 °F 36% 29.82 in 10.0 mi SSW 13.8 mph - N/A   Clear
8:53 PM 73.9 °F 51.1 °F 45% 29.82 in 10.0 mi South 11.5 mph - N/A   Clear
9:53 PM 71.1 °F 52.0 °F 51% 29.84 in 10.0 mi South 12.7 mph - N/A   Clear
10:53 PM 70.0 °F 53.1 °F 55% 29.84 in 10.0 mi South 12.7 mph - N/A   Clear
11:53 PM 68.0 °F 53.1 °F 59% 29.84 in 10.0 mi South 15.0 mph - N/A   Clear